{"data":{"norad_id":66760,"epoch":"2026-09-20T22:23:38.355648Z","epoch_age_seconds":80134,"freshness":"FRESH","line1":"1 66760U 25276CY  26263.93308282  .00002855  00000+0  13186-3 0  9992","line2":"2 66760  97.4107 336.0963 0001143  73.9374 286.1988 15.20996057 44988","mean_motion":15.20996057,"eccentricity":0.0001143,"inclination_deg":97.4107,"raan_deg":336.0963,"arg_perigee_deg":73.9374,"mean_anomaly_deg":286.1988,"bstar":0.00013186,"rev_number":4498,"period_min":94.674801645459,"perigee_km":502.04837661181,"apogee_km":503.62136678168,"semimajor_km":6880.9718716967,"source":"CELESTRAK","updated_at":"2026-09-21T09:00:16.182679Z"}}